Back to catalog

SL-8 DEB

AlivePO
NORAD 45523·DEBRIS·🇷🇺 Russia

Launched Feb 27, 1990 from Plesetsk Cosmodrome

Loading…

Next Passes (next 24 hours)

TLE

FreshSource: Space-Track

Epoch: Sep 12, 2026, 12:52 UTC

1 45523U 90017D   26255.53616644  .00000151  00000-0  13586-3 0  9994
2 45523  82.9569 342.7553 0043590  83.7744 276.8377 13.77172931643311

Track SL-8 DEB in real time with AllMySat

Download on the App Store